Location: Austin
(30.3000°N, 97.7500°W)
Time: 03:00:46
(UTC-06:00)

CZ-2C R/B - Pass Details

Date: 20 November 2023
Orbit: 476 x 529 km, 97.8° (Epoch: 05 December)

Event Time Altitude Azimuth Distance (km) Brightness Sun altitude
Rises 17:57:43 0° 175° (S) 2,539 6.4 -6.0°
Reaches altitude 10° 17:59:48 10° 178° (S) 1,656 5.5 -6.4°
Maximum altitude 18:03:18 60° 259° (W) 555 3.2 -7.1°
Drops below altitude 10° 18:06:48 10° 340° (NNW) 1,651 5.3 -7.8°
Sets 18:08:53 0° 344° (NNW) 2,531 6.2 -8.2°
